FENGYUN 1C DEB

Satellite information

Favourite Embed

Satellite Type and Status

DEBRISIN ORBIT

Key statistics

Satellite FENGYUN 1C DEB at a glance.

Uptime

9500

Days in orbit

Revolutions

≈ 14.2

Per day

Orbit

SSO

Sun Synchronous Orbit

Inclination

99.5

Latest

Satellite identification and parameters

Extended collection of information and parameters for FENGYUN 1C DEB.

Object identification

Identified? True

Debris? True

Object name: FENGYUN 1C DEB

International designator: 1999-025BJG

Object number (NORAD): 31178

Object ID (CCSDS): 31178

Country: PEOPLES REPUBLIC OF CHINA (PRC)

Current information (Y/N): Y

RCS size: SMALL

Orbital parameters

Period: 101.399 minutes

Inclination: 99.5066 deg

SMA: 7203.03 km

Apoapsis: 917.17 km

Periapsis: 732.62 km

RAAN: 117.5632 deg

Eccentricy: 0.0128106

Argument of periapsis: 200.3152 deg

Mean anomaly: 159.2899 deg

Mean motion: 14.20135931 rev/day

Mean motion (dot): 0.00003209 rev/day2

B* drag term: 0.0014071 1/REarth

Two-line elements (TLE)

Creation date: May 12, 2025, 2:31 a.m.

Reference frame: TEME

Reference center: EARTH

Epoch: May 11, 2025, 4:52 p.m. UTC

TLE line 0: 0 FENGYUN 1C DEB

TLE line 1: 1 31178U 99025BJG 25131.70319676 .00003209 00000-0 14071-2 0 9995

TLE line 2: 2 31178 99.5066 117.5632 0128106 200.3152 159.2899 14.20135931927610

Live tracking on map

Real-time ground track for satellite FENGYUN 1C DEB.

In-orbit conjunctions

A list of the most updated potential collisions computed for object FENGYUN 1C DEB.

Target Orbit TCA Probability of collision Miss distance Type
CZ-6A DEB LEO 2024-11-14 17:00:20 0.0005169669 812.0 (m) DEBRIS
SL-16 R/B LEO 2024-07-07 01:53:42 0.0005513004 135.0 (m) ROCKET BODY

Associated space launch

Chinese polar orbiting meteorological satellite

FENGYUN 1C DEB was lifted into orbit during the mission ‘Long March 4B | Feng Yun 1C’, on board a Long March 4B space rocket.

The launch took place on May 10, 1999, 1:33 a.m. from Launch Complex 7.

For more information about the launch, click the button.

Launch to space Long March 4B | Feng Yun 1C
Long March 4B | Feng Yun 1C

Agency: N/A

Status: Launch Successful

Launch date: May 10, 1999, 1:33 a.m. UTC

Rocket: Long March 4B

Launch pad: Launch Complex 7

Location: Taiyuan Satellite Launch Center, People's Republic of China

...

Latest news about this satellite

There are no fresh news available about this satellite. Check back as we update our databases every day.


Newsletter sign-up

Weekly statistics, charts and insights to help you stay on top of the space industry.